ATLAS 5 CENTAUR DEB, 52967

Orbit data source: Space-Track

ATLAS 5 CENTAUR DEB, 52967 is space debris in HEO originally from a launch on Wed, 17 Oct 2018 UTC launched from the Air Force Eastern Test Range (AFETR). Debris objects in space refer to the collection of defunct objects orbiting the Earth. Examples of debris include non-operational satellites, rocket bodies, and fragments generated from explosions, collisions, or faulty payload assembly.

Loading next visibility...
Identifier
52967, 2018-079GR
Orbit
HEO
Country
Flag of USUS
Related business
Flag of USUnited Launch Alliance/Lockheed Martin (US)
Manufacturer
ULA Decatur
Mission
Spacecraft
Bus & Motor
Unknown
Mass
Unknown
Launch date (UTC)
2018-10-17 (8 years ago)
Launch vehicle
Unknown
Launch site
Air Force Eastern Test Range (AFETR)
Object type
Payload
Rocket body
Debris
Shape & HBR
Unknown shape, 1.1 m
Radar Cross Section
RCS unknown

Expand to show TLE details & history
Last TLE update: 2 weeks ago

TLE from 2 weeks ago
0 ATLAS 5 CENTAUR DEB
1 52967U 18079GR  26159.39146198 -.00000056  00000-0  00000-0 0  9990
2 52967  13.1572  38.5113 4785063 314.5957  15.1332  1.78495296 26192
Epoch: 2026-06-08T09:23Z
TLE epoch observation values (Epoch: 2026-06-08T09:23:42.315Z)
Latitude
0.00014°
Longitude
0.76381°
Altitude
10,213.282 km
Speed
5.845 km/s
True Right ascension
02h 33m 52s
True Declination
0° 00' 00"
Sunlit
Object was in daylight at epoch
Visualization orbit readout
Latitude
Unknown
Longitude
Unknown
Altitude
Unknown
Speed
Unknown
Apparent Right ascension
Unknown
Apparent Declination
Unknown
Sunlit
N/A
Visualization observer readout
Local Sidereal Time
21:49:48
Azimuth
Unknown
Elevation
Unknown
Doppler factor
Unknown
Orbital elements
Apogee altitude
36,068.086 km
Perigee altitude
8,593.35 km
Semi-major axis
28,708.855 km
Eccentricity
0.47851
Inclination
13.1572°
RAAN
38.5113°
Arg. of periapsis
314.5957°
True anomaly
45.55843°
Mean anomaly
15.1332°
Eccentric anomaly
28.00765°
Mean motion
0.44619 °/min
Orbital period
806.83 mins
BSTAR
0
Loading maneuver chart data...
Computing Atmospheric mass density...

Documentation

Showing up to 5 results
|